QPF
0.00 0.00 0.00 0.01 0.01 0.02 0.03 0.03 0.03 0.04 0.04 0.03 0.03 0.03 0.05 0.05 0.06 0.07 0.07 0.06 0.05 0.06 0.07 0.07 0.05 0.04 0.04 0.03 0.03 0.03 0.02 0.01 0.02 0.03 0.04 0.03 0.02 0.02 0.01 0.01 0.01 0.01 0.01
0.00 0.00 0.00 0.00 0.01 0.02 0.03 0.03 0.03 0.03 0.03 0.03 0.02 0.02 0.04 0.05 0.05 0.05 0.07 0.08 0.06 0.05 0.06 0.07 0.07 0.04 0.03 0.03 0.02 0.01 0.01 0.01 0.03 0.04 0.05 0.04 0.04 0.03 0.02 0.01 0.01 0.01 0.01
0.00 0.00 0.00 0.01 0.01 0.02 0.02 0.02 0.02 0.02 0.02 0.02 0.02 0.02 0.02 0.03 0.06 0.06 0.07 0.09 0.09 0.07 0.06 0.05 0.06 0.06 0.04 0.02 0.01 0.01 0.01 0.01 0.03 0.04 0.05 0.04 0.04 0.03 0.03 0.03 0.02 0.01 0.01
0.00 0.00 0.00 0.01 0.01 0.01 0.02 0.02 0.02 0.01 0.01 0.02 0.02 0.01 0.01 0.01 0.03 0.06 0.07 0.08 0.09 0.09 0.08 0.06 0.05 0.05 0.04 0.02 0.01 0.01 0.01 0.01 0.03 0.04 0.04 0.04 0.04 0.04 0.04 0.04 0.03 0.02 0.01
0.00 0.00 0.00 0.00 0.01 0.01 0.02 0.02 0.02 0.01 0.01 0.01 0.01 0.02 0.02 0.01 0.02 0.04 0.06 0.08 0.10 0.10 0.10 0.09 0.08 0.06 0.04 0.02 0.01 0.01 0.01 0.01 0.02 0.04 0.04 0.04 0.04 0.04 0.04 0.04 0.04 0.03 0.02
0.00 0.00 0.00 0.00 0.01 0.01 0.02 0.02 0.02 0.01 0.01 0.01 0.02 0.02 0.02 0.01 0.02 0.03 0.05 0.07 0.09 0.11 0.11 0.10 0.10 0.08 0.06 0.04 0.02 0.01 0.01 0.01 0.02 0.03 0.03 0.03 0.03 0.03 0.04 0.04 0.03 0.02 0.02
0.00 0.00 0.00 0.00 0.01 0.01 0.02 0.01 0.02 0.01 0.01 0.01 0.02 0.03 0.02 0.02 0.01 0.02 0.04 0.05 0.07 0.09 0.10 0.09 0.09 0.08 0.07 0.05 0.04 0.03 0.03 0.03 0.03 0.03 0.03 0.03 0.02 0.03 0.03 0.03 0.03 0.02 0.01
0.00 0.01 0.01 0.01 0.01 0.01 0.01 0.01 0.01 0.01 0.01 0.02 0.03 0.04 0.03 0.02 0.02 0.02 0.03 0.04 0.05 0.07 0.08 0.09 0.08 0.07 0.07 0.06 0.04 0.03 0.04 0.04 0.04 0.05 0.04 0.03 0.02 0.02 0.03 0.03 0.02 0.01 0.01
0.00 0.00 0.01 0.01 0.01 0.01 0.01 0.01 0.01 0.01 0.01 0.02 0.03 0.05 0.04 0.03 0.02 0.02 0.02 0.03 0.04 0.04 0.06 0.07 0.09 0.09 0.08 0.06 0.05 0.04 0.04 0.04 0.04 0.05 0.06 0.04 0.03 0.02 0.03 0.03 0.02 0.01 0.01
0.00 0.00 0.01 0.01 0.01 0.01 0.01 0.01 0.01 0.01 0.01 0.02 0.03 0.05 0.06 0.05 0.03 0.02 0.02 0.03 0.04 0.04 0.04 0.05 0.06 0.08 0.09 0.08 0.06 0.05 0.04 0.04 0.04 0.04 0.06 0.07 0.04 0.03 0.03 0.03 0.02 0.01 0.01
0.00 0.01 0.01 0.01 0.01 0.01 0.01 0.01 0.01 0.02 0.01 0.02 0.03 0.03 0.07 0.07 0.05 0.03 0.03 0.03 0.05 0.05 0.05 0.04 0.05 0.06 0.07 0.07 0.07 0.06 0.05 0.04 0.04 0.04 0.04 0.05 0.05 0.04 0.04 0.03 0.03 0.02 0.01
0.01 0.01 0.01 0.01 0.01 0.01 0.01 0.01 0.01 0.02 0.01 0.02 0.02 0.02 0.04 0.08 0.07 0.04 0.03 0.03 0.04 0.05 0.05 0.05 0.05 0.05 0.06 0.06 0.06 0.07 0.06 0.06 0.05 0.05 0.04 0.04 0.04 0.04 0.04 0.03 0.03 0.03 0.02
0.01 0.01 0.01 0.01 0.02 0.02 0.01 0.01 0.01 0.02 0.02 0.02 0.02 0.02 0.02 0.05 0.08 0.07 0.04 0.03 0.03 0.04 0.04 0.04 0.05 0.05 0.05 0.05 0.05 0.06 0.06 0.06 0.06 0.06 0.05 0.05 0.04 0.04 0.04 0.03 0.03 0.03 0.03
0.01 0.01 0.01 0.01 0.02 0.02 0.02 0.01 0.01 0.01 0.02 0.02 0.02 0.02 0.02 0.03 0.05 0.07 0.07 0.05 0.04 0.04 0.04 0.04 0.04 0.05 0.05 0.05 0.04 0.05 0.05 0.05 0.06 0.07 0.07 0.06 0.06 0.05 0.04 0.03 0.03 0.03 0.03
0.01 0.01 0.01 0.01 0.01 0.02 0.02 0.02 0.02 0.01 0.01 0.02 0.02 0.03 0.03 0.03 0.03 0.05 0.06 0.08 0.06 0.04 0.04 0.04 0.04 0.05 0.05 0.05 0.04 0.04 0.04 0.05 0.05 0.06 0.07 0.07 0.07 0.07 0.06 0.05 0.04 0.03 0.04
0.01 0.01 0.01 0.01 0.01 0.02 0.02 0.01 0.02 0.02 0.02 0.01 0.02 0.03 0.03 0.03 0.03 0.04 0.05 0.06 0.08 0.07 0.05 0.04 0.04 0.04 0.05 0.05 0.05 0.05 0.05 0.05 0.06 0.05 0.06 0.06 0.07 0.07 0.08 0.08 0.06 0.05 0.04
0.01 0.01 0.01 0.01 0.01 0.01 0.01 0.02 0.02 0.02 0.02 0.02 0.02 0.02 0.03 0.03 0.03 0.03 0.04 0.05 0.06 0.07 0.07 0.06 0.06 0.05 0.05 0.05 0.04 0.05 0.05 0.05 0.05 0.05 0.05 0.05 0.06 0.06 0.06 0.07 0.08 0.07 0.05
0.01 0.01 0.01 0.01 0.01 0.01 0.01 0.01 0.02 0.02 0.02 0.02 0.02 0.02 0.02 0.02 0.03 0.03 0.03 0.04 0.04 0.05 0.07 0.07 0.07 0.07 0.06 0.06 0.05 0.05 0.05 0.05 0.05 0.05 0.05 0.05 0.05 0.05 0.06 0.07 0.08 0.08 0.07
0.01 0.01 0.01 0.01 0.01 0.01 0.01 0.01 0.02 0.03 0.02 0.02 0.02 0.02 0.02 0.02 0.03 0.03 0.03 0.03 0.04 0.04 0.05 0.05 0.05 0.06 0.06 0.06 0.05 0.06 0.06 0.07 0.07 0.06 0.05 0.05 0.04 0.05 0.06 0.07 0.08 0.08 0.08
0.01 0.01 0.01 0.01 0.01 0.01 0.01 0.01 0.01 0.02 0.02 0.02 0.02 0.02 0.02 0.02 0.03 0.03 0.03 0.03 0.03 0.03 0.03 0.04 0.05 0.05 0.05 0.06 0.06 0.06 0.06 0.07 0.07 0.07 0.07 0.06 0.05 0.05 0.06 0.06 0.06 0.06 0.06
0.01 0.01 0.01 0.01 0.01 0.01 0.01 0.01 0.01 0.02 0.02 0.02 0.02 0.02 0.03 0.03 0.03 0.03 0.03 0.03 0.03 0.02 0.03 0.03 0.04 0.04 0.05 0.06 0.07 0.07 0.07 0.06 0.06 0.06 0.06 0.06 0.05 0.05 0.07 0.07 0.06 0.06 0.05
0.00 0.01 0.01 0.01 0.01 0.01 0.01 0.02 0.02 0.02 0.02 0.02 0.02 0.02 0.03 0.03 0.03 0.03 0.02 0.02 0.02 0.02 0.02 0.02 0.03 0.04 0.04 0.05 0.06 0.07 0.08 0.06 0.05 0.05 0.05 0.05 0.05 0.06 0.07 0.08 0.08 0.08 0.08
0.00 0.00 0.01 0.01 0.01 0.01 0.01 0.02 0.02 0.02 0.02 0.02 0.03 0.03 0.02 0.02 0.03 0.03 0.03 0.02 0.02 0.02 0.02 0.02 0.03 0.03 0.04 0.04 0.05 0.05 0.07 0.07 0.06 0.05 0.05 0.05 0.06 0.07 0.08 0.08 0.07 0.07 0.08
0.00 0.00 0.00 0.01 0.01 0.01 0.01 0.01 0.02 0.02 0.02 0.02 0.03 0.03 0.03 0.02 0.02 0.03 0.03 0.03 0.02 0.02 0.02 0.02 0.02 0.02 0.03 0.03 0.04 0.04 0.05 0.06 0.06 0.05 0.04 0.05 0.06 0.07 0.07 0.07 0.07 0.07 0.06
0.00 0.00 0.00 0.00 0.00 0.01 0.01 0.01 0.02 0.02 0.02 0.02 0.02 0.03 0.03 0.02 0.02 0.02 0.02 0.02 0.02 0.02 0.03 0.03 0.02 0.02 0.02 0.02 0.03 0.03 0.04 0.05 0.05 0.05 0.04 0.05 0.05 0.06 0.06 0.06 0.06 0.06 0.06
0.00 0.00 0.00 0.00 0.00 0.00 0.01 0.01 0.02 0.02 0.02 0.02 0.02 0.04 0.03 0.02 0.02 0.02 0.02 0.02 0.02 0.02 0.02 0.02 0.03 0.03 0.02 0.03 0.03 0.03 0.04 0.05 0.06 0.06 0.05 0.04 0.03 0.04 0.04 0.04 0.04 0.04 0.04
MSLP
1036.46 1036.54 1036.70 1036.91 1037.13 1037.26 1037.24 1037.02 1036.59 1036.01 1035.34 1034.67 1034.09 1033.64 1033.32 1033.13 1032.98 1032.82 1032.58 1032.24 1031.79 1031.27 1030.73 1030.23 1029.83 1029.54 1029.34 1029.20 1029.07 1028.88 1028.60 1028.22 1027.77 1027.29 1026.84 1026.49 1026.27 1026.18 1026.23 1026.36 1026.52 1026.66 1026.74
1036.70 1036.77 1036.93 1037.17 1037.42 1037.61 1037.67 1037.54 1037.22 1036.74 1036.17 1035.59 1035.07 1034.65 1034.35 1034.15 1033.97 1033.76 1033.46 1033.05 1032.54 1031.95 1031.35 1030.81 1030.36 1030.03 1029.81 1029.66 1029.52 1029.34 1029.09 1028.74 1028.33 1027.88 1027.46 1027.11 1026.88 1026.78 1026.79 1026.87 1026.98 1027.07 1027.12
1036.95 1037.01 1037.16 1037.39 1037.67 1037.91 1038.04 1038.01 1037.80 1037.44 1036.98 1036.50 1036.05 1035.67 1035.39 1035.17 1034.96 1034.70 1034.36 1033.90 1033.33 1032.70 1032.05 1031.46 1030.96 1030.59 1030.33 1030.15 1029.99 1029.81 1029.58 1029.26 1028.88 1028.47 1028.08 1027.76 1027.53 1027.41 1027.39 1027.44 1027.50 1027.54 1027.54
1037.20 1037.25 1037.40 1037.64 1037.93 1038.22 1038.42 1038.48 1038.37 1038.11 1037.75 1037.35 1036.96 1036.61 1036.33 1036.09 1035.85 1035.56 1035.17 1034.67 1034.08 1033.41 1032.74 1032.11 1031.58 1031.17 1030.86 1030.65 1030.47 1030.28 1030.05 1029.75 1029.41 1029.05 1028.70 1028.41 1028.21 1028.09 1028.05 1028.06 1028.08 1028.08 1028.02
1037.41 1037.50 1037.66 1037.92 1038.25 1038.57 1038.83 1038.96 1038.93 1038.75 1038.46 1038.11 1037.74 1037.40 1037.10 1036.83 1036.55 1036.22 1035.81 1035.30 1034.69 1034.02 1033.34 1032.71 1032.16 1031.71 1031.38 1031.13 1030.92 1030.72 1030.49 1030.22 1029.92 1029.60 1029.30 1029.06 1028.88 1028.78 1028.73 1028.72 1028.70 1028.65 1028.55
1037.59 1037.74 1037.95 1038.26 1038.63 1038.99 1039.30 1039.47 1039.49 1039.35 1039.08 1038.74 1038.36 1037.99 1037.65 1037.33 1037.01 1036.65 1036.22 1035.71 1035.11 1034.47 1033.81 1033.19 1032.63 1032.18 1031.82 1031.54 1031.31 1031.10 1030.88 1030.63 1030.37 1030.09 1029.84 1029.64 1029.49 1029.40 1029.36 1029.34 1029.30 1029.22 1029.07
1037.72 1037.96 1038.27 1038.64 1039.06 1039.47 1039.80 1040.00 1040.03 1039.89 1039.60 1039.22 1038.80 1038.37 1037.96 1037.58 1037.22 1036.83 1036.39 1035.89 1035.33 1034.73 1034.10 1033.51 1032.98 1032.52 1032.15 1031.86 1031.61 1031.39 1031.18 1030.95 1030.71 1030.48 1030.27 1030.10 1029.98 1029.91 1029.87 1029.85 1029.79 1029.69 1029.52
1037.80 1038.16 1038.57 1039.03 1039.52 1039.97 1040.32 1040.52 1040.53 1040.35 1040.01 1039.56 1039.06 1038.55 1038.06 1037.62 1037.21 1036.79 1036.36 1035.89 1035.37 1034.81 1034.24 1033.68 1033.17 1032.72 1032.35 1032.04 1031.78 1031.56 1031.34 1031.12 1030.91 1030.70 1030.52 1030.38 1030.28 1030.22 1030.19 1030.15 1030.10 1029.99 1029.82
1037.83 1038.33 1038.85 1039.41 1039.96 1040.45 1040.81 1040.98 1040.95 1040.70 1040.29 1039.75 1039.16 1038.56 1038.01 1037.50 1037.05 1036.62 1036.20 1035.75 1035.28 1034.76 1034.23 1033.71 1033.22 1032.77 1032.39 1032.07 1031.80 1031.56 1031.34 1031.14 1030.93 1030.74 1030.57 1030.44 1030.34 1030.29 1030.25 1030.22 1030.16 1030.06 1029.90
1037.81 1038.44 1039.09 1039.74 1040.35 1040.86 1041.21 1041.35 1041.25 1040.93 1040.44 1039.82 1039.14 1038.47 1037.86 1037.31 1036.83 1036.40 1035.99 1035.57 1035.12 1034.64 1034.14 1033.64 1033.15 1032.70 1032.30 1031.96 1031.67 1031.42 1031.19 1030.98 1030.78 1030.59 1030.42 1030.29 1030.18 1030.11 1030.06 1030.02 1029.96 1029.87 1029.73
1037.75 1038.51 1039.26 1039.99 1040.65 1041.16 1041.49 1041.58 1041.42 1041.03 1040.46 1039.77 1039.04 1038.32 1037.67 1037.11 1036.63 1036.20 1035.81 1035.41 1034.98 1034.51 1034.02 1033.50 1033.00 1032.52 1032.10 1031.72 1031.41 1031.13 1030.90 1030.68 1030.47 1030.28 1030.10 1029.95 1029.82 1029.72 1029.65 1029.59 1029.53 1029.45 1029.34
1037.67 1038.53 1039.37 1040.16 1040.83 1041.34 1041.63 1041.67 1041.44 1040.99 1040.37 1039.64 1038.88 1038.16 1037.51 1036.95 1036.48 1036.08 1035.70 1035.31 1034.89 1034.41 1033.90 1033.36 1032.81 1032.30 1031.82 1031.41 1031.06 1030.77 1030.52 1030.29 1030.08 1029.88 1029.69 1029.51 1029.36 1029.22 1029.12 1029.03 1028.96 1028.88 1028.79
1037.58 1038.52 1039.43 1040.24 1040.91 1041.38 1041.62 1041.60 1041.31 1040.82 1040.17 1039.44 1038.69 1037.99 1037.37 1036.85 1036.42 1036.04 1035.68 1035.30 1034.86 1034.37 1033.81 1033.22 1032.63 1032.06 1031.54 1031.08 1030.70 1030.39 1030.12 1029.89 1029.68 1029.47 1029.27 1029.06 1028.87 1028.70 1028.55 1028.43 1028.34 1028.26 1028.18
1037.50 1038.50 1039.43 1040.24 1040.87 1041.29 1041.46 1041.38 1041.05 1040.53 1039.88 1039.17 1038.46 1037.82 1037.26 1036.80 1036.42 1036.07 1035.73 1035.35 1034.90 1034.37 1033.77 1033.13 1032.48 1031.85 1031.28 1030.79 1030.38 1030.04 1029.77 1029.54 1029.33 1029.12 1028.90 1028.68 1028.46 1028.25 1028.06 1027.90 1027.77 1027.67 1027.59
1037.46 1038.48 1039.40 1040.16 1040.73 1041.08 1041.17 1041.03 1040.67 1040.14 1039.51 1038.85 1038.21 1037.64 1037.16 1036.77 1036.45 1036.14 1035.82 1035.43 1034.97 1034.41 1033.77 1033.08 1032.38 1031.71 1031.10 1030.57 1030.14 1029.79 1029.52 1029.29 1029.08 1028.87 1028.65 1028.41 1028.16 1027.92 1027.69 1027.48 1027.32 1027.19 1027.10
1037.44 1038.45 1039.31 1040.00 1040.49 1040.74 1040.76 1040.56 1040.18 1039.66 1039.07 1038.48 1037.92 1037.44 1037.05 1036.74 1036.47 1036.20 1035.90 1035.52 1035.04 1034.47 1033.80 1033.08 1032.35 1031.65 1031.01 1030.46 1030.02 1029.66 1029.39 1029.16 1028.95 1028.74 1028.52 1028.27 1028.00 1027.73 1027.46 1027.22 1027.02 1026.86 1026.74
1037.45 1038.39 1039.16 1039.75 1040.12 1040.29 1040.23 1039.99 1039.60 1039.12 1038.59 1038.07 1037.61 1037.22 1036.91 1036.66 1036.45 1036.22 1035.94 1035.57 1035.10 1034.52 1033.85 1033.12 1032.38 1031.67 1031.02 1030.47 1030.01 1029.65 1029.37 1029.14 1028.93 1028.72 1028.48 1028.22 1027.94 1027.65 1027.36 1027.09 1026.86 1026.67 1026.52
1037.44 1038.27 1038.91 1039.38 1039.64 1039.71 1039.61 1039.34 1038.97 1038.53 1038.07 1037.64 1037.27 1036.96 1036.73 1036.54 1036.37 1036.17 1035.91 1035.56 1035.10 1034.54 1033.89 1033.18 1032.45 1031.76 1031.12 1030.57 1030.11 1029.74 1029.44 1029.19 1028.97 1028.74 1028.50 1028.23 1027.94 1027.64 1027.34 1027.06 1026.81 1026.60 1026.43
1037.35 1038.03 1038.54 1038.87 1039.04 1039.04 1038.90 1038.64 1038.31 1037.94 1037.56 1037.22 1036.92 1036.69 1036.51 1036.37 1036.22 1036.04 1035.80 1035.47 1035.04 1034.51 1033.90 1033.23 1032.54 1031.88 1031.26 1030.72 1030.25 1029.87 1029.55 1029.27 1029.02 1028.77 1028.51 1028.23 1027.94 1027.64 1027.34 1027.06 1026.82 1026.61 1026.43
1037.13 1037.65 1038.01 1038.23 1038.32 1038.28 1038.14 1037.92 1037.65 1037.36 1037.07 1036.81 1036.59 1036.42 1036.27 1036.15 1036.02 1035.85 1035.62 1035.31 1034.90 1034.42 1033.85 1033.24 1032.61 1031.98 1031.39 1030.86 1030.39 1029.98 1029.63 1029.31 1029.03 1028.75 1028.47 1028.18 1027.89 1027.60 1027.33 1027.07 1026.84 1026.64 1026.48
1036.73 1037.09 1037.33 1037.46 1037.50 1037.46 1037.36 1037.20 1037.02 1036.82 1036.63 1036.45 1036.29 1036.15 1036.02 1035.90 1035.76 1035.58 1035.35 1035.05 1034.68 1034.23 1033.73 1033.17 1032.60 1032.02 1031.46 1030.94 1030.46 1030.02 1029.63 1029.28 1028.95 1028.64 1028.34 1028.06 1027.78 1027.51 1027.26 1027.04 1026.85 1026.68 1026.54
1036.13 1036.36 1036.51 1036.60 1036.63 1036.62 1036.58 1036.52 1036.44 1036.34 1036.24 1036.12 1036.01 1035.88 1035.76 1035.61 1035.45 1035.25 1035.00 1034.71 1034.36 1033.95 1033.49 1032.99 1032.47 1031.94 1031.41 1030.90 1030.41 1029.95 1029.53 1029.14 1028.78 1028.45 1028.14 1027.85 1027.59 1027.36 1027.15 1026.98 1026.83 1026.70 1026.59
1035.35 1035.49 1035.59 1035.67 1035.74 1035.79 1035.85 1035.88 1035.91 1035.91 1035.88 1035.82 1035.73 1035.61 1035.46 1035.29 1035.08 1034.84 1034.58 1034.27 1033.93 1033.55 1033.13 1032.68 1032.20 1031.71 1031.20 1030.70 1030.21 1029.74 1029.30 1028.89 1028.51 1028.17 1027.86 1027.59 1027.36 1027.17 1027.01 1026.88 1026.78 1026.70 1026.63
1034.43 1034.52 1034.62 1034.73 1034.85 1034.99 1035.14 1035.28 1035.40 1035.49 1035.52 1035.50 1035.43 1035.30 1035.12 1034.90 1034.65 1034.37 1034.07 1033.75 1033.41 1033.04 1032.65 1032.23 1031.78 1031.32 1030.84 1030.35 1029.87 1029.40 1028.95 1028.54 1028.16 1027.83 1027.54 1027.30 1027.11 1026.97 1026.86 1026.78 1026.72 1026.68 1026.64
1033.43 1033.52 1033.64 1033.80 1034.00 1034.22 1034.46 1034.69 1034.88 1035.03 1035.11 1035.12 1035.05 1034.91 1034.70 1034.44 1034.15 1033.83 1033.50 1033.16 1032.81 1032.44 1032.06 1031.66 1031.23 1030.79 1030.34 1029.87 1029.40 1028.95 1028.51 1028.12 1027.76 1027.46 1027.21 1027.01 1026.87 1026.77 1026.70 1026.67 1026.65 1026.64 1026.62
1032.43 1032.54 1032.70 1032.91 1033.16 1033.45 1033.75 1034.04 1034.30 1034.49 1034.60 1034.62 1034.56 1034.40 1034.18 1033.90 1033.58 1033.24 1032.88 1032.52 1032.16 1031.79 1031.41 1031.01 1030.60 1030.17 1029.73 1029.29 1028.84 1028.41 1028.01 1027.65 1027.34 1027.08 1026.88 1026.73 1026.64 1026.58 1026.56 1026.56 1026.56 1026.57 1026.56
Thickness
5515 5515 5514 5514 5514 5515 5516 5517 5518 5520 5522 5523 5526 5527 5528 5529 5530 5532 5533 5534 5535 5536 5536 5536 5536 5537 5538 5537 5537 5536 5536 5536 5536 5536 5535 5536 5539 5541 5543 5545 5546 5547 5548
5500 5500 5499 5499 5499 5500 5502 5503 5504 5506 5508 5511 5513 5516 5517 5517 5518 5520 5521 5522 5523 5524 5525 5525 5525 5526 5527 5526 5526 5526 5524 5524 5525 5524 5523 5522 5524 5527 5530 5532 5534 5535 5537
5486 5485 5485 5484 5484 5485 5486 5489 5490 5492 5495 5497 5499 5502 5503 5504 5505 5506 5508 5510 5511 5513 5514 5515 5515 5515 5516 5516 5516 5516 5515 5513 5512 5514 5514 5513 5512 5512 5515 5518 5521 5523 5524
5474 5472 5471 5469 5468 5469 5471 5474 5476 5478 5481 5484 5487 5489 5492 5493 5494 5495 5496 5497 5499 5501 5502 5504 5505 5505 5505 5506 5505 5505 5504 5503 5501 5501 5503 5504 5504 5501 5500 5503 5507 5510 5511
5460 5458 5456 5455 5455 5456 5458 5460 5463 5465 5468 5471 5474 5477 5479 5481 5482 5483 5484 5486 5487 5489 5491 5492 5494 5494 5494 5495 5494 5494 5493 5493 5492 5491 5491 5491 5492 5492 5490 5489 5492 5495 5498
5446 5444 5443 5442 5442 5443 5444 5447 5450 5453 5455 5458 5461 5464 5467 5469 5470 5472 5473 5474 5476 5478 5479 5481 5482 5483 5483 5483 5483 5483 5482 5482 5482 5481 5481 5480 5480 5481 5480 5479 5478 5481 5484
5431 5429 5428 5428 5428 5429 5431 5433 5436 5439 5442 5444 5447 5450 5454 5457 5459 5461 5462 5463 5464 5466 5469 5470 5471 5472 5472 5472 5472 5472 5472 5472 5471 5471 5470 5470 5470 5471 5470 5468 5466 5468 5470
5417 5415 5414 5414 5414 5415 5417 5420 5423 5426 5428 5431 5433 5437 5441 5444 5447 5449 5451 5452 5454 5456 5459 5460 5461 5461 5461 5460 5461 5460 5461 5461 5460 5460 5459 5459 5459 5460 5460 5458 5455 5455 5456
5404 5403 5402 5401 5401 5402 5405 5407 5410 5413 5415 5417 5420 5424 5427 5431 5434 5436 5438 5440 5443 5445 5447 5449 5450 5450 5450 5450 5449 5449 5449 5449 5449 5448 5448 5448 5448 5448 5449 5448 5448 5447 5444
5391 5390 5389 5388 5389 5390 5392 5394 5397 5399 5402 5404 5406 5410 5414 5417 5420 5423 5425 5428 5430 5432 5434 5436 5438 5439 5439 5439 5438 5437 5437 5438 5438 5437 5437 5437 5437 5437 5437 5436 5437 5437 5437
5378 5376 5376 5376 5377 5378 5379 5381 5383 5386 5388 5391 5393 5396 5400 5403 5407 5409 5412 5415 5417 5419 5422 5424 5426 5427 5428 5428 5428 5427 5427 5427 5427 5427 5427 5427 5427 5426 5425 5426 5425 5425 5425
5365 5364 5363 5364 5365 5365 5367 5368 5370 5373 5375 5378 5380 5383 5386 5389 5392 5395 5399 5402 5404 5407 5410 5412 5414 5415 5416 5417 5417 5417 5417 5417 5417 5417 5417 5417 5416 5416 5415 5415 5414 5413 5413
5354 5352 5352 5352 5353 5353 5354 5355 5357 5359 5362 5365 5367 5370 5372 5375 5378 5381 5385 5388 5391 5394 5397 5400 5402 5403 5404 5406 5407 5407 5407 5407 5407 5407 5407 5407 5406 5405 5405 5404 5403 5402 5402
5341 5340 5339 5339 5340 5341 5341 5342 5344 5347 5349 5352 5354 5357 5359 5362 5364 5367 5371 5375 5378 5381 5384 5387 5390 5391 5392 5394 5395 5396 5397 5397 5397 5396 5397 5397 5396 5396 5395 5394 5392 5391 5389
5330 5328 5326 5326 5326 5327 5328 5329 5331 5333 5336 5338 5340 5343 5346 5348 5351 5354 5357 5360 5363 5366 5370 5373 5376 5379 5380 5382 5384 5385 5386 5386 5386 5385 5385 5386 5386 5385 5385 5384 5383 5380 5378
5319 5317 5315 5314 5314 5314 5315 5316 5318 5320 5322 5324 5326 5330 5332 5335 5337 5340 5344 5346 5350 5353 5356 5360 5363 5365 5368 5370 5372 5373 5374 5375 5374 5374 5374 5374 5374 5374 5374 5374 5373 5372 5369
5307 5305 5303 5301 5301 5302 5303 5304 5306 5308 5309 5311 5313 5316 5318 5321 5323 5325 5328 5332 5335 5338 5341 5345 5348 5351 5354 5356 5359 5361 5362 5362 5362 5363 5363 5363 5363 5363 5363 5362 5360 5360 5359
5296 5293 5291 5290 5289 5290 5291 5292 5294 5296 5297 5299 5300 5302 5304 5306 5309 5311 5314 5317 5320 5323 5327 5330 5334 5337 5340 5342 5345 5347 5348 5349 5350 5351 5352 5352 5351 5351 5350 5349 5348 5348 5347
5285 5282 5280 5279 5278 5278 5279 5281 5282 5284 5285 5286 5288 5289 5290 5292 5295 5297 5300 5303 5306 5310 5313 5317 5320 5323 5326 5327 5330 5332 5333 5335 5337 5338 5339 5339 5339 5339 5339 5337 5336 5335 5335
5274 5271 5269 5268 5267 5267 5268 5269 5270 5271 5272 5273 5275 5276 5277 5279 5281 5284 5286 5290 5293 5297 5301 5304 5307 5309 5312 5314 5316 5318 5319 5321 5323 5324 5326 5327 5328 5327 5326 5325 5325 5325 5324
5264 5261 5259 5257 5256 5256 5256 5257 5257 5258 5259 5261 5263 5264 5266 5267 5269 5271 5274 5277 5281 5285 5288 5291 5293 5296 5298 5301 5303 5304 5305 5307 5308 5310 5312 5313 5315 5315 5315 5315 5314 5315 5314
5254 5251 5248 5247 5246 5245 5244 5245 5245 5246 5247 5248 5250 5252 5254 5256 5258 5259 5262 5264 5267 5270 5274 5277 5280 5282 5284 5287 5289 5291 5292 5294 5295 5297 5298 5300 5301 5303 5303 5303 5303 5303 5302
5242 5240 5237 5235 5234 5233 5232 5232 5233 5234 5235 5236 5238 5241 5243 5245 5246 5247 5249 5251 5254 5257 5260 5263 5266 5269 5271 5272 5275 5277 5279 5281 5282 5284 5285 5287 5289 5290 5291 5290 5290 5290 5289
5231 5228 5226 5224 5222 5221 5221 5220 5221 5221 5222 5224 5226 5229 5231 5234 5235 5236 5238 5240 5242 5244 5247 5250 5252 5255 5257 5259 5261 5262 5265 5267 5269 5271 5273 5275 5276 5276 5278 5278 5277 5277 5277
5219 5217 5213 5212 5211 5210 5209 5209 5208 5209 5210 5212 5214 5216 5219 5221 5223 5225 5227 5229 5231 5233 5235 5237 5239 5241 5244 5247 5249 5250 5252 5254 5256 5258 5260 5261 5261 5262 5263 5264 5264 5265 5265
5207 5204 5202 5200 5199 5197 5197 5196 5196 5196 5197 5200 5202 5205 5207 5209 5212 5214 5217 5219 5221 5224 5225 5227 5228 5230 5233 5235 5238 5241 5243 5245 5247 5248 5249 5249 5249 5250 5251 5252 5252 5253 5253